When you browse on this site, cookies collect data to enhance your experience and personalize the content and advertising you see.
Visit our Privacy Policy to learn more. By continuing to use the site, you agree to this use of cookies and data.
  • In Österreich
  • Länderverzeichnis
  • Für 7 Tage
  • Wassertemperatur
  • Wetterkarte
  • News
  • Widgets
  • user-avatar
    Anmelden

    Stündliche Wetter Sliwen

    Heute, 26 Januar, Sonntag

    Zeit Temperatur Niederschläge Wind Luftdruck Luftfeuchtigkeit
    00:00 +5°C° 0 mm 1 m/S 736 mmHg 62%
    01:00 +5°C° 0 mm 1 m/S 736 mmHg 64%
    02:00 +4°C° 0 mm 1 m/S 736 mmHg 66%
    03:00 +4°C° 0 mm 1 m/S 736 mmHg 67%
    04:00 +4°C° 0 mm 1 m/S 736 mmHg 68%
    05:00 +4°C° 0 mm 1 m/S 736 mmHg 69%
    06:00 +4°C° 0 mm 1 m/S 736 mmHg 70%
    07:00 +4°C° 0 mm 1 m/S 737 mmHg 71%
    08:00 +4°C° 0 mm 1 m/S 737 mmHg 71%
    09:00 +6°C° 0 mm 1 m/S 737 mmHg 66%
    10:00 +8°C° 0 mm 1 m/S 737 mmHg 60%
    11:00 +10°C° 0 mm 1 m/S 738 mmHg 55%
    12:00 +10°C° 0 mm 1 m/S 737 mmHg 54%
    13:00 +11°C° 0 mm 1 m/S 737 mmHg 52%
    14:00 +12°C° 0 mm 1 m/S 737 mmHg 51%
    15:00 +11°C° 0 mm 1 m/S 736 mmHg 56%
    16:00 +10°C° 0 mm 1 m/S 736 mmHg 60%
    17:00 +7°C° 0 mm 0 m/S 736 mmHg 64%
    18:00 +7°C° 0 mm 0 m/S 736 mmHg 66%
    19:00 +6°C° 0 mm 0 m/S 736 mmHg 68%
    20:00 +5°C° 0 mm 0 m/S 736 mmHg 70%
    21:00 +6°C° 0 mm 1 m/S 736 mmHg 72%
    22:00 +6°C° 0 mm 1 m/S 735 mmHg 74%
    23:00 +6°C° 0 mm 1 m/S 735 mmHg 76%

    Morgen, 27 Januar, Montag

    Zeit Temperatur Niederschläge Wind Luftdruck Luftfeuchtigkeit
    00:00 +6°C° 0 mm 1 m/S 735 mmHg 80%
    01:00 +6°C° 0 mm 1 m/S 735 mmHg 83%
    02:00 +6°C° 0 mm 1 m/S 734 mmHg 86%
    03:00 +6°C° 0 mm 1 m/S 734 mmHg 89%
    04:00 +7°C° 0 mm 1 m/S 734 mmHg 92%
    05:00 +7°C° 0 mm 1 m/S 733 mmHg 95%
    06:00 +7°C° 0 mm 1 m/S 733 mmHg 96%
    07:00 +7°C° 0 mm 1 m/S 733 mmHg 96%
    08:00 +7°C° 0 mm 1 m/S 733 mmHg 97%
    09:00 +8°C° 0 mm 1 m/S 733 mmHg 94%
    10:00 +9°C° 0 mm 1 m/S 733 mmHg 92%
    11:00 +9°C° 0 mm 1 m/S 733 mmHg 90%
    12:00 +9°C° 0 mm 1 m/S 732 mmHg 89%
    13:00 +10°C° 0 mm 1 m/S 732 mmHg 87%
    14:00 +10°C° 0 mm 1 m/S 731 mmHg 86%
    15:00 +9°C° 2.1 mm 1 m/S 731 mmHg 89%
    16:00 +8°C° 2.1 mm 2 m/S 731 mmHg 92%
    17:00 +7°C° 2.1 mm 2 m/S 730 mmHg 95%
    18:00 +6°C° 3.1 mm 2 m/S 730 mmHg 94%
    19:00 +6°C° 3.1 mm 2 m/S 730 mmHg 93%
    20:00 +5°C° 3.1 mm 2 m/S 730 mmHg 92%
    21:00 +5°C° 0.3 mm 2 m/S 730 mmHg 92%
    22:00 +5°C° 0.3 mm 2 m/S 730 mmHg 92%
    23:00 +5°C° 0.3 mm 2 m/S 730 mmHg 92%

    übermorgen, 28 Januar, Dienstag

    Zeit Temperatur Niederschläge Wind Luftdruck Luftfeuchtigkeit
    00:00 +5°C° 0 mm 2 m/S 730 mmHg 91%
    01:00 +5°C° 0 mm 2 m/S 730 mmHg 90%
    02:00 +5°C° 0 mm 2 m/S 730 mmHg 90%
    03:00 +5°C° 0.1 mm 2 m/S 730 mmHg 90%
    04:00 +4°C° 0.1 mm 2 m/S 730 mmHg 91%
    05:00 +4°C° 0.1 mm 2 m/S 730 mmHg 92%
    06:00 +4°C° 0 mm 2 m/S 730 mmHg 91%
    07:00 +4°C° 0 mm 2 m/S 730 mmHg 91%
    08:00 +4°C° 0 mm 2 m/S 730 mmHg 91%
    09:00 +6°C° 0 mm 2 m/S 730 mmHg 85%
    10:00 +7°C° 0 mm 3 m/S 730 mmHg 78%
    11:00 +8°C° 0 mm 3 m/S 731 mmHg 71%
    12:00 +9°C° 0 mm 3 m/S 730 mmHg 68%
    13:00 +9°C° 0 mm 3 m/S 730 mmHg 65%
    14:00 +10°C° 0 mm 3 m/S 729 mmHg 61%
    15:00 +9°C° 0 mm 2 m/S 729 mmHg 66%
    16:00 +8°C° 0 mm 2 m/S 728 mmHg 70%
    17:00 +9°C° 0 mm 1 m/S 728 mmHg 75%
    18:00 +8°C° 0 mm 1 m/S 728 mmHg 77%
    19:00 +7°C° 0 mm 1 m/S 728 mmHg 79%
    20:00 +7°C° 0 mm 1 m/S 728 mmHg 81%
    21:00 +7°C° 0 mm 1 m/S 728 mmHg 84%
    22:00 +6°C° 0 mm 1 m/S 728 mmHg 86%
    23:00 +6°C° 0 mm 1 m/S 727 mmHg 89%

    29 Januar, Mittwoch

    Zeit Temperatur Niederschläge Wind Luftdruck Luftfeuchtigkeit
    00:00 +6°C° 0 mm 1 m/S 727 mmHg 90%
    01:00 +6°C° 0 mm 1 m/S 727 mmHg 91%
    02:00 +5°C° 0 mm 1 m/S 726 mmHg 92%
    03:00 +5°C° 0 mm 1 m/S 726 mmHg 93%
    04:00 +5°C° 0 mm 1 m/S 725 mmHg 93%
    05:00 +4°C° 0 mm 1 m/S 724 mmHg 94%
    06:00 +4°C° 0 mm 1 m/S 724 mmHg 92%
    07:00 +3°C° 0 mm 2 m/S 724 mmHg 91%
    08:00 +4°C° 0 mm 2 m/S 724 mmHg 90%
    09:00 +4°C° 0.2 mm 2 m/S 724 mmHg 88%
    10:00 +4°C° 0.2 mm 3 m/S 725 mmHg 87%
    11:00 +4°C° 0.2 mm 4 m/S 725 mmHg 85%
    12:00 +5°C° 0 mm 4 m/S 725 mmHg 80%
    13:00 +5°C° 0 mm 4 m/S 725 mmHg 74%
    14:00 +5°C° 0 mm 5 m/S 726 mmHg 69%
    15:00 +5°C° 0 mm 4 m/S 726 mmHg 68%
    16:00 +5°C° 0 mm 3 m/S 727 mmHg 67%
    17:00 +5°C° 0 mm 2 m/S 727 mmHg 66%
    18:00 +5°C° 0 mm 2 m/S 727 mmHg 67%
    19:00 +5°C° 0 mm 1 m/S 728 mmHg 68%
    20:00 +4°C° 0 mm 1 m/S 728 mmHg 69%
    21:00 +4°C° 0 mm 1 m/S 728 mmHg 67%
    22:00 +4°C° 0 mm 1 m/S 728 mmHg 65%
    23:00 +4°C° 0 mm 1 m/S 728 mmHg 63%

    30 Januar, Donnerstag

    Zeit Temperatur Niederschläge Wind Luftdruck Luftfeuchtigkeit
    00:00 +4°C° 0 mm 1 m/S 728 mmHg 63%
    01:00 +4°C° 0 mm 1 m/S 728 mmHg 63%
    02:00 +4°C° 0 mm 1 m/S 727 mmHg 63%
    03:00 +4°C° 0 mm 1 m/S 727 mmHg 65%
    04:00 +4°C° 0 mm 1 m/S 727 mmHg 66%
    05:00 +3°C° 0 mm 2 m/S 728 mmHg 68%
    06:00 +2°C° 0 mm 2 m/S 728 mmHg 68%
    07:00 +2°C° 0 mm 2 m/S 728 mmHg 69%
    08:00 +1°C° 0 mm 3 m/S 729 mmHg 69%
    09:00 +1°C° 0 mm 4 m/S 729 mmHg 62%
    10:00 +2°C° 0 mm 5 m/S 729 mmHg 54%
    11:00 +3°C° 0 mm 5 m/S 730 mmHg 47%
    12:00 +4°C° 0 mm 6 m/S 730 mmHg 47%
    13:00 +4°C° 0 mm 6 m/S 729 mmHg 46%
    14:00 +4°C° 0 mm 6 m/S 729 mmHg 46%
    15:00 +4°C° 0 mm 6 m/S 729 mmHg 50%
    16:00 +3°C° 0 mm 5 m/S 730 mmHg 54%
    17:00 +2°C° 0 mm 5 m/S 730 mmHg 58%
    18:00 +1°C° 0 mm 5 m/S 730 mmHg 58%
    19:00 +1°C° 0 mm 5 m/S 730 mmHg 59%
    20:00 +1°C° 0 mm 5 m/S 731 mmHg 59%
    21:00 0°C° 0 mm 4 m/S 731 mmHg 62%
    22:00 0°C° 0 mm 4 m/S 731 mmHg 66%
    23:00 0°C° 0 mm 3 m/S 732 mmHg 69%

    31 Januar, Freitag

    Zeit Temperatur Niederschläge Wind Luftdruck Luftfeuchtigkeit
    00:00 0°C° 0 mm 3 m/S 732 mmHg 71%
    01:00 -1°C° 0 mm 3 m/S 732 mmHg 74%
    02:00 -2°C° 0 mm 4 m/S 733 mmHg 76%
    03:00 -2°C° 0 mm 4 m/S 733 mmHg 76%
    04:00 -2°C° 0 mm 4 m/S 733 mmHg 77%
    05:00 -2°C° 0 mm 4 m/S 733 mmHg 77%
    06:00 -1°C° 0 mm 3 m/S 733 mmHg 76%
    07:00 -1°C° 0 mm 3 m/S 734 mmHg 76%
    08:00 -1°C° 0 mm 3 m/S 734 mmHg 75%
    09:00 0°C° 0 mm 3 m/S 734 mmHg 68%
    10:00 +1°C° 0 mm 4 m/S 735 mmHg 61%
    11:00 +3°C° 0 mm 4 m/S 735 mmHg 55%
    12:00 +4°C° 0 mm 4 m/S 735 mmHg 52%
    13:00 +5°C° 0 mm 4 m/S 734 mmHg 49%
    14:00 +5°C° 0 mm 4 m/S 734 mmHg 46%
    15:00 +5°C° 0 mm 3 m/S 734 mmHg 49%
    16:00 +5°C° 0 mm 2 m/S 734 mmHg 53%
    17:00 +4°C° 0 mm 2 m/S 734 mmHg 57%
    18:00 +3°C° 0 mm 2 m/S 734 mmHg 59%
    19:00 +4°C° 0 mm 1 m/S 734 mmHg 61%
    20:00 +3°C° 0 mm 1 m/S 734 mmHg 62%
    21:00 +3°C° 0 mm 1 m/S 734 mmHg 62%
    22:00 +3°C° 0 mm 1 m/S 734 mmHg 62%
    23:00 +3°C° 0 mm 1 m/S 734 mmHg 61%
    Mehr zeigen